date,time,water_lv
2016-12-01,00:00:00,107.76
2016-12-01,00:10:00,107.76
2016-12-01,00:20:00,107.76
2016-12-01,00:30:00,107.75
2016-12-01,00:40:00,107.77
2016-12-01,00:50:00,107.74
2016-12-01,01:00:00,107.75
2016-12-01,01:10:00,107.74
2016-12-01,01:20:00,107.72
2016-12-01,01:30:00,107.74
2016-12-01,01:40:00,107.75
2016-12-01,01:50:00,107.74
2016-12-01,02:00:00,107.74
2016-12-01,02:10:00,107.74
2016-12-01,02:20:00,107.73
2016-12-01,02:30:00,107.74
2016-12-01,02:40:00,107.72
2016-12-01,02:50:00,107.74
2016-12-01,03:00:00,107.73
2016-12-01,03:10:00,107.73
2016-12-01,03:20:00,107.72
2016-12-01,03:30:00,107.74
2016-12-01,03:40:00,107.73
2016-12-01,03:50:00,107.74
2016-12-01,04:00:00,107.73
2016-12-01,04:10:00,107.72
2016-12-01,04:20:00,107.71
2016-12-01,04:30:00,107.72
2016-12-01,04:40:00,107.73
2016-12-01,04:50:00,107.72
2016-12-01,05:00:00,107.71
2016-12-01,05:10:00,107.71
2016-12-01,05:20:00,107.7
2016-12-01,05:30:00,107.72
2016-12-01,05:40:00,107.71
2016-12-01,05:50:00,107.7
2016-12-01,06:00:00,107.72
2016-12-01,06:10:00,107.72
2016-12-01,06:20:00,107.7
2016-12-01,06:30:00,107.7
2016-12-01,06:40:00,107.69
2016-12-01,06:50:00,107.7
2016-12-01,07:00:00,107.7
2016-12-01,07:10:00,107.7
2016-12-01,07:20:00,107.7
2016-12-01,07:30:00,107.69
2016-12-01,07:40:00,107.7
2016-12-01,07:50:00,107.69
2016-12-01,08:00:00,107.69
2016-12-01,08:10:00,107.69
2016-12-01,08:20:00,107.68
2016-12-01,08:30:00,107.7
2016-12-01,08:40:00,107.7
2016-12-01,08:50:00,107.68
2016-12-01,09:00:00,107.68
2016-12-01,09:10:00,107.69
2016-12-01,09:20:00,107.69
2016-12-01,09:30:00,107.7
2016-12-01,09:40:00,107.7
2016-12-01,09:50:00,107.68
2016-12-01,10:00:00,107.68
2016-12-01,10:10:00,107.68
2016-12-01,10:20:00,107.67
2016-12-01,10:30:00,107.68
2016-12-01,10:40:00,107.67
2016-12-01,10:50:00,107.66
2016-12-01,11:00:00,107.67
2016-12-01,11:10:00,107.67
2016-12-01,11:20:00,107.67
2016-12-01,11:30:00,107.67
2016-12-01,11:40:00,107.66
2016-12-01,11:50:00,107.67
2016-12-01,12:00:00,107.68
2016-12-01,12:10:00,107.66
2016-12-01,12:20:00,107.66
2016-12-01,12:30:00,107.67
2016-12-01,12:40:00,107.65
2016-12-01,12:50:00,107.66
2016-12-01,13:00:00,107.67
2016-12-01,13:10:00,107.66
2016-12-01,13:20:00,107.65
2016-12-01,13:30:00,107.66
2016-12-01,13:40:00,107.67
2016-12-01,13:50:00,107.65
2016-12-01,14:00:00,107.66
2016-12-01,14:10:00,107.66
2016-12-01,14:20:00,107.64
2016-12-01,14:30:00,107.64
2016-12-01,14:40:00,107.64
2016-12-01,14:50:00,107.64
2016-12-01,15:00:00,107.64
2016-12-01,15:10:00,107.64
2016-12-01,15:20:00,107.62
2016-12-01,15:30:00,107.63
2016-12-01,15:40:00,107.64
2016-12-01,15:50:00,107.62
2016-12-01,16:00:00,107.63
2016-12-01,16:10:00,107.62
2016-12-01,16:20:00,107.62
2016-12-01,16:30:00,107.63
2016-12-01,16:40:00,107.63
2016-12-01,16:50:00,107.63
2016-12-01,17:00:00,107.63
2016-12-01,17:10:00,107.61
2016-12-01,17:20:00,107.62
2016-12-01,17:30:00,107.62
2016-12-01,17:40:00,107.62
2016-12-01,17:50:00,107.62
2016-12-01,18:00:00,107.61
2016-12-01,18:10:00,107.61
2016-12-01,18:20:00,107.6
2016-12-01,18:30:00,107.61
2016-12-01,18:40:00,107.61
2016-12-01,18:50:00,107.6
2016-12-01,19:00:00,107.61
2016-12-01,19:10:00,107.61
2016-12-01,19:20:00,107.6
2016-12-01,19:30:00,107.6
2016-12-01,19:40:00,107.6
2016-12-01,19:50:00,107.58
2016-12-01,20:00:00,107.6
2016-12-01,20:10:00,107.61
2016-12-01,20:20:00,107.59
2016-12-01,20:30:00,107.58
2016-12-01,20:40:00,107.59
2016-12-01,20:50:00,107.59
2016-12-01,21:00:00,107.58
2016-12-01,21:10:00,107.58
2016-12-01,21:20:00,107.58
2016-12-01,21:30:00,107.59
2016-12-01,21:40:00,107.57
2016-12-01,21:50:00,107.58
2016-12-01,22:00:00,107.58
2016-12-01,22:10:00,107.58
2016-12-01,22:20:00,107.57
2016-12-01,22:30:00,107.58
2016-12-01,22:40:00,107.58
2016-12-01,22:50:00,107.57
2016-12-01,23:00:00,107.57
2016-12-01,23:10:00,107.56
2016-12-01,23:20:00,107.57
2016-12-01,23:30:00,107.57
2016-12-01,23:40:00,107.57
2016-12-01,23:50:00,107.55
2016-12-02,00:00:00,107.57
2016-12-02,00:10:00,107.56
2016-12-02,00:20:00,107.57
2016-12-02,00:30:00,107.55
2016-12-02,00:40:00,107.56
2016-12-02,00:50:00,107.55
2016-12-02,01:00:00,107.55
2016-12-02,01:10:00,107.54
2016-12-02,01:20:00,107.54
2016-12-02,01:30:00,107.56
2016-12-02,01:40:00,107.55
2016-12-02,01:50:00,107.53
2016-12-02,02:00:00,107.55
2016-12-02,02:10:00,107.53
2016-12-02,02:20:00,107.54
2016-12-02,02:30:00,107.54
2016-12-02,02:40:00,107.55
2016-12-02,02:50:00,107.55
2016-12-02,03:00:00,107.54
2016-12-02,03:10:00,107.54
2016-12-02,03:20:00,107.53
2016-12-02,03:30:00,107.54
2016-12-02,03:40:00,107.54
2016-12-02,03:50:00,107.54
2016-12-02,04:00:00,107.53
2016-12-02,04:10:00,107.53
2016-12-02,04:20:00,107.53
2016-12-02,04:30:00,107.52
2016-12-02,04:40:00,107.53
2016-12-02,04:50:00,107.55
2016-12-02,05:00:00,107.53
2016-12-02,05:10:00,107.53
2016-12-02,05:20:00,107.52
2016-12-02,05:30:00,107.52
2016-12-02,05:40:00,107.52
2016-12-02,05:50:00,107.54
2016-12-02,06:00:00,107.52
2016-12-02,06:10:00,107.53
2016-12-02,06:20:00,107.53
2016-12-02,06:30:00,107.52
2016-12-02,06:40:00,107.53
2016-12-02,06:50:00,107.52
2016-12-02,07:00:00,107.52
2016-12-02,07:10:00,107.52
2016-12-02,07:20:00,107.52
2016-12-02,07:30:00,107.52
2016-12-02,07:40:00,107.52
2016-12-02,07:50:00,107.5
2016-12-02,08:00:00,107.49
2016-12-02,08:10:00,107.49
2016-12-02,08:20:00,107.49
2016-12-02,08:30:00,107.49
2016-12-02,08:40:00,107.47
2016-12-02,08:50:00,107.49
2016-12-02,09:00:00,107.5
2016-12-02,09:10:00,107.48
2016-12-02,09:20:00,107.47
2016-12-02,09:30:00,107.49
2016-12-02,09:40:00,107.49
2016-12-02,09:50:00,107.49
2016-12-02,10:00:00,107.47
2016-12-02,10:10:00,107.48
2016-12-02,10:20:00,107.48
2016-12-02,10:30:00,107.46
2016-12-02,10:40:00,107.46
2016-12-02,10:50:00,107.47
2016-12-02,11:00:00,107.48
2016-12-02,11:10:00,107.47
2016-12-02,11:20:00,107.45
2016-12-02,11:30:00,107.45
2016-12-02,11:40:00,107.45
2016-12-02,11:50:00,107.46
2016-12-02,12:00:00,107.44
2016-12-02,12:10:00,107.46
2016-12-02,12:20:00,107.46
2016-12-02,12:30:00,107.46
2016-12-02,12:40:00,107.45
2016-12-02,12:50:00,107.45
2016-12-02,13:00:00,107.45
2016-12-02,13:10:00,107.45
2016-12-02,13:20:00,107.44
2016-12-02,13:30:00,107.44
2016-12-02,13:40:00,107.43
2016-12-02,13:50:00,107.45
2016-12-02,14:00:00,107.45
2016-12-02,14:10:00,107.45
2016-12-02,14:20:00,107.44
2016-12-02,14:30:00,107.43
2016-12-02,14:40:00,107.43
2016-12-02,14:50:00,107.44
2016-12-02,15:00:00,107.44
2016-12-02,15:10:00,107.43
2016-12-02,15:20:00,107.43
2016-12-02,15:30:00,107.43
2016-12-02,15:40:00,107.42
2016-12-02,15:50:00,107.42
2016-12-02,16:00:00,107.42
2016-12-02,16:10:00,107.43
2016-12-02,16:20:00,107.43
2016-12-02,16:30:00,107.41
2016-12-02,16:40:00,107.41
2016-12-02,16:50:00,107.41
2016-12-02,17:00:00,107.41
2016-12-02,17:10:00,107.4
2016-12-02,17:20:00,107.41
2016-12-02,17:30:00,107.4
2016-12-02,17:40:00,107.4
2016-12-02,17:50:00,107.39
2016-12-02,18:00:00,107.41
2016-12-02,18:10:00,107.4
2016-12-02,18:20:00,107.4
2016-12-02,18:30:00,107.39
2016-12-02,18:40:00,107.38
2016-12-02,18:50:00,107.39
2016-12-02,19:00:00,107.39
2016-12-02,19:10:00,107.38
2016-12-02,19:20:00,107.39
2016-12-02,19:30:00,107.38
2016-12-02,19:40:00,107.38
2016-12-02,19:50:00,107.39
2016-12-02,20:00:00,107.38
2016-12-02,20:10:00,107.38
2016-12-02,20:20:00,107.37
2016-12-02,20:30:00,107.36
2016-12-02,20:40:00,107.37
2016-12-02,20:50:00,107.37
2016-12-02,21:00:00,107.37
2016-12-02,21:10:00,107.36
2016-12-02,21:20:00,107.36
2016-12-02,21:30:00,107.37
2016-12-02,21:40:00,107.35
2016-12-02,21:50:00,107.37
2016-12-02,22:00:00,107.36
2016-12-02,22:10:00,107.37
2016-12-02,22:20:00,107.35
2016-12-02,22:30:00,107.36
2016-12-02,22:40:00,107.37
2016-12-02,22:50:00,107.36
2016-12-02,23:00:00,107.36
2016-12-02,23:10:00,107.36
2016-12-02,23:20:00,107.37
2016-12-02,23:30:00,107.36
2016-12-02,23:40:00,107.35
2016-12-02,23:50:00,107.34
2016-12-03,00:00:00,107.34
2016-12-03,00:10:00,107.33
2016-12-03,00:20:00,107.34
2016-12-03,00:30:00,107.34
2016-12-03,00:40:00,107.33
2016-12-03,00:50:00,107.34
2016-12-03,01:00:00,107.33
2016-12-03,01:10:00,107.32
2016-12-03,01:20:00,107.32
2016-12-03,01:30:00,107.33
2016-12-03,01:40:00,107.33
2016-12-03,01:50:00,107.32
2016-12-03,02:00:00,107.32
2016-12-03,02:10:00,107.32
2016-12-03,02:20:00,107.33
2016-12-03,02:30:00,107.32
2016-12-03,02:40:00,107.32
2016-12-03,02:50:00,107.32
2016-12-03,03:00:00,107.31
2016-12-03,03:10:00,107.32
2016-12-03,03:20:00,107.31
2016-12-03,03:30:00,107.31
2016-12-03,03:40:00,107.31
2016-12-03,03:50:00,107.3
2016-12-03,04:00:00,107.32
2016-12-03,04:10:00,107.32
2016-12-03,04:20:00,107.33
2016-12-03,04:30:00,107.32
2016-12-03,04:40:00,107.32
2016-12-03,04:50:00,107.32
2016-12-03,05:00:00,107.31
2016-12-03,05:10:00,107.31
2016-12-03,05:20:00,107.31
2016-12-03,05:30:00,107.31
2016-12-03,05:40:00,107.3
2016-12-03,05:50:00,107.3
2016-12-03,06:00:00,107.29
2016-12-03,06:10:00,107.29
2016-12-03,06:20:00,107.31
2016-12-03,06:30:00,107.3
2016-12-03,06:40:00,107.3
2016-12-03,06:50:00,107.28
2016-12-03,07:00:00,107.28
2016-12-03,07:10:00,107.27
2016-12-03,07:20:00,107.28
2016-12-03,07:30:00,107.28
2016-12-03,07:40:00,107.27
2016-12-03,07:50:00,107.28
2016-12-03,08:00:00,107.27
2016-12-03,08:10:00,107.27
2016-12-03,08:20:00,107.27
2016-12-03,08:30:00,107.26
2016-12-03,08:40:00,107.26
2016-12-03,08:50:00,107.26
2016-12-03,09:00:00,107.25
2016-12-03,09:10:00,107.25
2016-12-03,09:20:00,107.26
2016-12-03,09:30:00,107.27
2016-12-03,09:40:00,107.24
2016-12-03,09:50:00,107.25
2016-12-03,10:00:00,107.25
2016-12-03,10:10:00,107.25
2016-12-03,10:20:00,107.24
2016-12-03,10:30:00,107.25
2016-12-03,10:40:00,107.24
2016-12-03,10:50:00,107.25
2016-12-03,11:00:00,107.24
2016-12-03,11:10:00,107.24
2016-12-03,11:20:00,107.22
2016-12-03,11:30:00,107.22
2016-12-03,11:40:00,107.24
2016-12-03,11:50:00,107.23
2016-12-03,12:00:00,107.24
2016-12-03,12:10:00,107.24
2016-12-03,12:20:00,107.21
2016-12-03,12:30:00,107.23
2016-12-03,12:40:00,107.23
2016-12-03,12:50:00,107.21
2016-12-03,13:00:00,107.21
2016-12-03,13:10:00,107.22
2016-12-03,13:20:00,107.22
2016-12-03,13:30:00,107.23
2016-12-03,13:40:00,107.21
2016-12-03,13:50:00,107.22
2016-12-03,14:00:00,107.22
2016-12-03,14:10:00,107.2
2016-12-03,14:20:00,107.2
2016-12-03,14:30:00,107.21
2016-12-03,14:40:00,107.22
2016-12-03,14:50:00,107.21
2016-12-03,15:00:00,107.2
2016-12-03,15:10:00,107.21
2016-12-03,15:20:00,107.17
2016-12-03,15:30:00,107.2
2016-12-03,15:40:00,107.18
2016-12-03,15:50:00,107.22
2016-12-03,16:00:00,107.19
2016-12-03,16:10:00,107.2
2016-12-03,16:20:00,107.2
2016-12-03,16:30:00,107.19
2016-12-03,16:40:00,107.2
2016-12-03,16:50:00,107.19
2016-12-03,17:00:00,107.18
2016-12-03,17:10:00,107.17
2016-12-03,17:20:00,107.19
2016-12-03,17:30:00,107.18
2016-12-03,17:40:00,107.18
2016-12-03,17:50:00,107.17
2016-12-03,18:00:00,107.17
2016-12-03,18:10:00,107.18
2016-12-03,18:20:00,107.18
2016-12-03,18:30:00,107.16
2016-12-03,18:40:00,107.17
2016-12-03,18:50:00,107.17
2016-12-03,19:00:00,107.17
2016-12-03,19:10:00,107.16
2016-12-03,19:20:00,107.16
2016-12-03,19:30:00,107.16
2016-12-03,19:40:00,107.16
2016-12-03,19:50:00,107.16
2016-12-03,20:00:00,107.15
2016-12-03,20:10:00,107.16
2016-12-03,20:20:00,107.16
2016-12-03,20:30:00,107.14
2016-12-03,20:40:00,107.16
2016-12-03,20:50:00,107.15
2016-12-03,21:00:00,107.15
2016-12-03,21:10:00,107.14
2016-12-03,21:20:00,107.15
2016-12-03,21:30:00,107.15
2016-12-03,21:40:00,107.13
2016-12-03,21:50:00,107.15
2016-12-03,22:00:00,107.13
2016-12-03,22:10:00,107.13
2016-12-03,22:20:00,107.13
2016-12-03,22:30:00,107.14
2016-12-03,22:40:00,107.12
2016-12-03,22:50:00,107.12
2016-12-03,23:00:00,107.12
2016-12-03,23:10:00,107.13
2016-12-03,23:20:00,107.13
2016-12-03,23:30:00,107.12
2016-12-03,23:40:00,107.11
2016-12-03,23:50:00,107.12
2016-12-04,00:00:00,107.12
2016-12-04,00:10:00,107.12
2016-12-04,00:20:00,107.11
2016-12-04,00:30:00,107.11
2016-12-04,00:40:00,107.12
2016-12-04,00:50:00,107.1
2016-12-04,01:00:00,107.12
2016-12-04,01:10:00,107.11
2016-12-04,01:20:00,107.11
2016-12-04,01:30:00,107.11
2016-12-04,01:40:00,107.11
2016-12-04,01:50:00,107.11
2016-12-04,02:00:00,107.11
2016-12-04,02:10:00,107.11
2016-12-04,02:20:00,107.1
2016-12-04,02:30:00,107.1
2016-12-04,02:40:00,107.1
2016-12-04,02:50:00,107.1
2016-12-04,03:00:00,107.1
2016-12-04,03:10:00,107.09
2016-12-04,03:20:00,107.1
2016-12-04,03:30:00,107.1
2016-12-04,03:40:00,107.09
2016-12-04,03:50:00,107.09
2016-12-04,04:00:00,107.1
2016-12-04,04:10:00,107.1
2016-12-04,04:20:00,107.11
2016-12-04,04:30:00,107.1
2016-12-04,04:40:00,107.1
2016-12-04,04:50:00,107.1
2016-12-04,05:00:00,107.09
2016-12-04,05:10:00,107.09
2016-12-04,05:20:00,107.09
2016-12-04,05:30:00,107.1
2016-12-04,05:40:00,107.09
2016-12-04,05:50:00,107.09
2016-12-04,06:00:00,107.08
2016-12-04,06:10:00,107.09
2016-12-04,06:20:00,107.09
2016-12-04,06:30:00,107.09
2016-12-04,06:40:00,107.06
2016-12-04,06:50:00,107.06
2016-12-04,07:00:00,107.07
2016-12-04,07:10:00,107.06
2016-12-04,07:20:00,107.05
2016-12-04,07:30:00,107.05
2016-12-04,07:40:00,107.06
2016-12-04,07:50:00,107.05
2016-12-04,08:00:00,107.05
2016-12-04,08:10:00,107.05
2016-12-04,08:20:00,107.05
2016-12-04,08:30:00,107.04
2016-12-04,08:40:00,107.04
2016-12-04,08:50:00,107.05
2016-12-04,09:00:00,107.03
2016-12-04,09:10:00,107.04
2016-12-04,09:20:00,107.02
2016-12-04,09:30:00,107.04
2016-12-04,09:40:00,107.03
2016-12-04,09:50:00,107.03
2016-12-04,10:00:00,107.03
2016-12-04,10:10:00,107.01
2016-12-04,10:20:00,107
2016-12-04,10:30:00,107.04
2016-12-04,10:40:00,107.03
2016-12-04,10:50:00,107.03
2016-12-04,11:00:00,107.03
2016-12-04,11:10:00,107.03
2016-12-04,11:20:00,107.02
2016-12-04,11:30:00,107.03
2016-12-04,11:40:00,107.01
2016-12-04,11:50:00,107.02
2016-12-04,12:00:00,107
2016-12-04,12:10:00,107.02
2016-12-04,12:20:00,107.01
2016-12-04,12:30:00,107
2016-12-04,12:40:00,107.01
2016-12-04,12:50:00,107.01
2016-12-04,13:00:00,107
2016-12-04,13:10:00,107
2016-12-04,13:20:00,106.99
2016-12-04,13:30:00,107
2016-12-04,13:40:00,107.01
2016-12-04,13:50:00,107.01
2016-12-04,14:00:00,107
2016-12-04,14:10:00,107
2016-12-04,14:20:00,106.99
2016-12-04,14:30:00,107
2016-12-04,14:40:00,107
2016-12-04,14:50:00,106.99
2016-12-04,15:00:00,107
2016-12-04,15:10:00,106.99
2016-12-04,15:20:00,106.98
2016-12-04,15:30:00,106.99
2016-12-04,15:40:00,106.99
2016-12-04,15:50:00,106.99
2016-12-04,16:00:00,106.96
2016-12-04,16:10:00,106.97
2016-12-04,16:20:00,106.98
2016-12-04,16:30:00,106.99
2016-12-04,16:40:00,106.99
2016-12-04,16:50:00,106.98
2016-12-04,17:00:00,106.97
2016-12-04,17:10:00,106.98
2016-12-04,17:20:00,106.98
2016-12-04,17:30:00,106.97
2016-12-04,17:40:00,106.97
2016-12-04,17:50:00,106.96
2016-12-04,18:00:00,106.95
2016-12-04,18:10:00,106.98
2016-12-04,18:20:00,106.96
2016-12-04,18:30:00,106.95
2016-12-04,18:40:00,106.96
2016-12-04,18:50:00,106.96
2016-12-04,19:00:00,106.95
2016-12-04,19:10:00,106.93
2016-12-04,19:20:00,106.95
2016-12-04,19:30:00,106.94
2016-12-04,19:40:00,106.95
2016-12-04,19:50:00,106.95
2016-12-04,20:00:00,106.93
2016-12-04,20:10:00,106.96
2016-12-04,20:20:00,106.93
2016-12-04,20:30:00,106.95
2016-12-04,20:40:00,106.95
2016-12-04,20:50:00,106.94
2016-12-04,21:00:00,106.93
2016-12-04,21:10:00,106.94
2016-12-04,21:20:00,106.94
2016-12-04,21:30:00,106.94
2016-12-04,21:40:00,106.94
2016-12-04,21:50:00,106.93
2016-12-04,22:00:00,106.94
2016-12-04,22:10:00,106.94
2016-12-04,22:20:00,106.92
2016-12-04,22:30:00,106.92
2016-12-04,22:40:00,106.92
2016-12-04,22:50:00,106.92
2016-12-04,23:00:00,106.92
2016-12-04,23:10:00,106.93
2016-12-04,23:20:00,106.92
2016-12-04,23:30:00,106.92
2016-12-04,23:40:00,106.91
2016-12-04,23:50:00,106.91
2016-12-05,00:00:00,106.92
2016-12-05,00:10:00,106.9
2016-12-05,00:20:00,106.92
2016-12-05,00:30:00,106.92
2016-12-05,00:40:00,106.93
2016-12-05,00:50:00,106.91
2016-12-05,01:00:00,106.9
2016-12-05,01:10:00,106.91
2016-12-05,01:20:00,106.91
2016-12-05,01:30:00,106.9
2016-12-05,01:40:00,106.9
2016-12-05,01:50:00,106.9
2016-12-05,02:00:00,106.9
2016-12-05,02:10:00,106.91
2016-12-05,02:20:00,106.9
2016-12-05,02:30:00,106.89
2016-12-05,02:40:00,106.89
2016-12-05,02:50:00,106.9
2016-12-05,03:00:00,106.89
2016-12-05,03:10:00,106.89
2016-12-05,03:20:00,106.89
2016-12-05,03:30:00,106.89
2016-12-05,03:40:00,106.89
2016-12-05,03:50:00,106.89
2016-12-05,04:00:00,106.89
2016-12-05,04:10:00,106.88
2016-12-05,04:20:00,106.88
2016-12-05,04:30:00,106.89
2016-12-05,04:40:00,106.88
2016-12-05,04:50:00,106.87
2016-12-05,05:00:00,106.89
2016-12-05,05:10:00,106.88
2016-12-05,05:20:00,106.88
2016-12-05,05:30:00,106.87
2016-12-05,05:40:00,106.87
2016-12-05,05:50:00,106.88
2016-12-05,06:00:00,106.87
2016-12-05,06:10:00,106.87
2016-12-05,06:20:00,106.89
2016-12-05,06:30:00,106.87
2016-12-05,06:40:00,106.89
2016-12-05,06:50:00,106.86
2016-12-05,07:00:00,106.86
2016-12-05,07:10:00,106.88
2016-12-05,07:20:00,106.87
2016-12-05,07:30:00,106.88
2016-12-05,07:40:00,106.86
2016-12-05,07:50:00,106.86
2016-12-05,08:00:00,106.85
2016-12-05,08:10:00,106.85
2016-12-05,08:20:00,106.85
2016-12-05,08:30:00,106.86
2016-12-05,08:40:00,106.85
2016-12-05,08:50:00,106.84
2016-12-05,09:00:00,106.85
2016-12-05,09:10:00,106.84
2016-12-05,09:20:00,106.85
2016-12-05,09:30:00,106.84
2016-12-05,09:40:00,106.85
2016-12-05,09:50:00,106.83
2016-12-05,10:00:00,106.86
2016-12-05,10:10:00,106.85
2016-12-05,10:20:00,106.85
2016-12-05,10:30:00,106.85
2016-12-05,10:40:00,106.87
2016-12-05,10:50:00,106.87
2016-12-05,11:00:00,106.85
2016-12-05,11:10:00,106.87
2016-12-05,11:20:00,106.88
2016-12-05,11:30:00,106.88
2016-12-05,11:40:00,106.86
2016-12-05,11:50:00,106.88
2016-12-05,12:00:00,106.88
2016-12-05,12:10:00,106.88
2016-12-05,12:20:00,106.87
2016-12-05,12:30:00,106.86
2016-12-05,12:40:00,106.89
2016-12-05,12:50:00,106.87
2016-12-05,13:00:00,106.87
2016-12-05,13:10:00,106.87
2016-12-05,13:20:00,106.86
2016-12-05,13:30:00,106.87
2016-12-05,13:40:00,106.85
2016-12-05,13:50:00,106.85
2016-12-05,14:00:00,106.86
2016-12-05,14:10:00,106.86
2016-12-05,14:20:00,106.86
2016-12-05,14:30:00,106.85
2016-12-05,14:40:00,106.86
2016-12-05,14:50:00,106.84
2016-12-05,15:00:00,106.85
2016-12-05,15:10:00,106.86
2016-12-05,15:20:00,106.85
2016-12-05,15:30:00,106.85
2016-12-05,15:40:00,106.85
2016-12-05,15:50:00,106.85
2016-12-05,16:00:00,106.83
2016-12-05,16:10:00,106.84
2016-12-05,16:20:00,106.83
2016-12-05,16:30:00,106.84
2016-12-05,16:40:00,106.83
2016-12-05,16:50:00,106.84
2016-12-05,17:00:00,106.84
2016-12-05,17:10:00,106.83
2016-12-05,17:20:00,106.83
2016-12-05,17:30:00,106.82
2016-12-05,17:40:00,106.82
2016-12-05,17:50:00,106.81
2016-12-05,18:00:00,106.82
2016-12-05,18:10:00,106.81
2016-12-05,18:20:00,106.82
2016-12-05,18:30:00,106.83
2016-12-05,18:40:00,106.81
2016-12-05,18:50:00,106.8
2016-12-05,19:00:00,106.79
2016-12-05,19:10:00,106.81
2016-12-05,19:20:00,106.82
2016-12-05,19:30:00,106.8
2016-12-05,19:40:00,106.81
2016-12-05,19:50:00,106.8
2016-12-05,20:00:00,106.81
2016-12-05,20:10:00,106.8
2016-12-05,20:20:00,106.81
2016-12-05,20:30:00,106.81
2016-12-05,20:40:00,106.81
2016-12-05,20:50:00,106.8
2016-12-05,21:00:00,106.79
2016-12-05,21:10:00,106.81
2016-12-05,21:20:00,106.8
2016-12-05,21:30:00,106.81
2016-12-05,21:40:00,106.8
2016-12-05,21:50:00,106.8
2016-12-05,22:00:00,106.8
2016-12-05,22:10:00,106.8
2016-12-05,22:20:00,106.78
2016-12-05,22:30:00,106.78
2016-12-05,22:40:00,106.8
2016-12-05,22:50:00,106.79
2016-12-05,23:00:00,106.79
2016-12-05,23:10:00,106.78
2016-12-05,23:20:00,106.79
2016-12-05,23:30:00,106.79
2016-12-05,23:40:00,106.79
2016-12-05,23:50:00,106.77
2016-12-06,00:00:00,106.78
2016-12-06,00:10:00,106.79
2016-12-06,00:20:00,106.77
2016-12-06,00:30:00,106.78
2016-12-06,00:40:00,106.76
2016-12-06,00:50:00,106.77
2016-12-06,01:00:00,106.77
2016-12-06,01:10:00,106.78
2016-12-06,01:20:00,106.77
2016-12-06,01:30:00,106.78
2016-12-06,01:40:00,106.77
2016-12-06,01:50:00,106.76
2016-12-06,02:00:00,106.76
2016-12-06,02:10:00,106.75
2016-12-06,02:20:00,106.75
2016-12-06,02:30:00,106.75
2016-12-06,02:40:00,106.76
2016-12-06,02:50:00,106.75
2016-12-06,03:00:00,106.75
2016-12-06,03:10:00,106.76
2016-12-06,03:20:00,106.75
2016-12-06,03:30:00,106.76
2016-12-06,03:40:00,106.76
2016-12-06,03:50:00,106.75
2016-12-06,04:00:00,106.74
2016-12-06,04:10:00,106.75
2016-12-06,04:20:00,106.74
2016-12-06,04:30:00,106.74
2016-12-06,04:40:00,106.76
2016-12-06,04:50:00,106.74
2016-12-06,05:00:00,106.75
2016-12-06,05:10:00,106.76
2016-12-06,05:20:00,106.76
2016-12-06,05:30:00,106.74
2016-12-06,05:40:00,106.73
2016-12-06,05:50:00,106.73
2016-12-06,06:00:00,106.73
2016-12-06,06:10:00,106.73
2016-12-06,06:20:00,106.72
2016-12-06,06:30:00,106.73
2016-12-06,06:40:00,106.74
2016-12-06,06:50:00,106.73
2016-12-06,07:00:00,106.73
2016-12-06,07:10:00,106.72
2016-12-06,07:20:00,106.73
2016-12-06,07:30:00,106.71
2016-12-06,07:40:00,106.73
2016-12-06,07:50:00,106.73
2016-12-06,08:00:00,106.73
2016-12-06,08:10:00,106.72
2016-12-06,08:20:00,106.72
2016-12-06,08:30:00,106.73
2016-12-06,08:40:00,106.72
2016-12-06,08:50:00,106.71
2016-12-06,09:00:00,106.72
2016-12-06,09:10:00,106.71
2016-12-06,09:20:00,106.71
2016-12-06,09:30:00,106.71
2016-12-06,09:40:00,106.7
2016-12-06,09:50:00,106.72
2016-12-06,10:00:00,106.71
2016-12-06,10:10:00,106.71
2016-12-06,10:20:00,106.71
2016-12-06,10:30:00,106.7
2016-12-06,10:40:00,106.7
2016-12-06,10:50:00,106.7
2016-12-06,11:00:00,106.68
2016-12-06,11:10:00,106.69
2016-12-06,11:20:00,106.68
2016-12-06,11:30:00,106.71
2016-12-06,11:40:00,106.7
2016-12-06,11:50:00,106.67
2016-12-06,12:00:00,106.7
2016-12-06,12:10:00,106.69
2016-12-06,12:20:00,106.69
2016-12-06,12:30:00,106.68
2016-12-06,12:40:00,106.7
2016-12-06,12:50:00,106.7
2016-12-06,13:00:00,106.7
2016-12-06,13:10:00,106.67
2016-12-06,13:20:00,106.67
2016-12-06,13:30:00,106.68
2016-12-06,13:40:00,106.68
2016-12-06,13:50:00,106.7
2016-12-06,14:00:00,106.68
2016-12-06,14:10:00,106.68
2016-12-06,14:20:00,106.69
2016-12-06,14:30:00,106.68
2016-12-06,14:40:00,106.67
2016-12-06,14:50:00,106.67
2016-12-06,15:00:00,106.67
2016-12-06,15:10:00,106.67
2016-12-06,15:20:00,106.67
2016-12-06,15:30:00,106.67
2016-12-06,15:40:00,106.68
2016-12-06,15:50:00,106.69
2016-12-06,16:00:00,106.65
2016-12-06,16:10:00,106.66
2016-12-06,16:20:00,106.67
2016-12-06,16:30:00,106.67
2016-12-06,16:40:00,106.66
2016-12-06,16:50:00,106.66
2016-12-06,17:00:00,106.65
2016-12-06,17:10:00,106.65
2016-12-06,17:20:00,106.64
2016-12-06,17:30:00,106.65
2016-12-06,17:40:00,106.64
2016-12-06,17:50:00,106.64
2016-12-06,18:00:00,106.65
2016-12-06,18:10:00,106.66
2016-12-06,18:20:00,106.66
2016-12-06,18:30:00,106.64
2016-12-06,18:40:00,106.65
2016-12-06,18:50:00,106.65
2016-12-06,19:00:00,106.63
2016-12-06,19:10:00,106.63
2016-12-06,19:20:00,106.64
2016-12-06,19:30:00,106.63
2016-12-06,19:40:00,106.64
2016-12-06,19:50:00,106.63
2016-12-06,20:00:00,106.63
2016-12-06,20:10:00,106.64
2016-12-06,20:20:00,106.63
2016-12-06,20:30:00,106.64
2016-12-06,20:40:00,106.63
2016-12-06,20:50:00,106.63
2016-12-06,21:00:00,106.62
2016-12-06,21:10:00,106.63
2016-12-06,21:20:00,106.63
2016-12-06,21:30:00,106.63
2016-12-06,21:40:00,106.63
2016-12-06,21:50:00,106.62
2016-12-06,22:00:00,106.62
2016-12-06,22:10:00,106.63
2016-12-06,22:20:00,106.62
2016-12-06,22:30:00,106.61
2016-12-06,22:40:00,106.6
2016-12-06,22:50:00,106.61
2016-12-06,23:00:00,106.62
2016-12-06,23:10:00,106.62
2016-12-06,23:20:00,106.61
2016-12-06,23:30:00,106.61
2016-12-06,23:40:00,106.6
2016-12-06,23:50:00,106.62
2016-12-07,00:00:00,106.61
2016-12-07,00:10:00,106.61
2016-12-07,00:20:00,106.62
2016-12-07,00:30:00,106.6
2016-12-07,00:40:00,106.6
2016-12-07,00:50:00,106.61
2016-12-07,01:00:00,106.59
2016-12-07,01:10:00,106.58
2016-12-07,01:20:00,106.58
2016-12-07,01:30:00,106.59
2016-12-07,01:40:00,106.59
2016-12-07,01:50:00,106.59
2016-12-07,02:00:00,106.59
2016-12-07,02:10:00,106.59
2016-12-07,02:20:00,106.6
2016-12-07,02:30:00,106.59
2016-12-07,02:40:00,106.58
2016-12-07,02:50:00,106.58
2016-12-07,03:00:00,106.58
2016-12-07,03:10:00,106.58
2016-12-07,03:20:00,106.58
2016-12-07,03:30:00,106.58
2016-12-07,03:40:00,106.58
2016-12-07,03:50:00,106.58
2016-12-07,04:00:00,106.58
2016-12-07,04:10:00,106.56
2016-12-07,04:20:00,106.56
2016-12-07,04:30:00,106.58